Regional Weather Roundup
Issued by NWS

Home | Current Version | Previous Version | Graphics & Text | Print | Product List | Glossary On
Versions: 1 2 3 4 5 6 7 8 9 10 11 12 13 14 15 16 17 18 19 20 21 22 23 24 25 26 27 28 29 30 31 32 33 34 35 36 37 38 39 40 41 42 43 44 45 46 47 48 49 50
000
ASUS45 KCYS 261810
RWRWY

WYOMING REGIONAL WEATHER ROUNDUP
NATIONAL WEATHER SERVICE CHEYENNE WY
1200 PM MDT SAT JUL 26 2014

NOTE:  "FAIR" INDICATES FEW OR NO CLOUDS BELOW 12,000 FEET
WITH NO SIGNIFICANT WEATHER AND/OR OBSTRUCTIONS TO VISIBILITY.

WYZ001-261900-
YELLOWSTONE NATIONAL PARK

CITY           SKY/WX    TMP DP  RH WIND       PRES   REMARKS
LK YELLOWSTONE   N/A     61  31  32 E7        30.42R
6HR MIN TEMP:  32; 6HR MAX TEMP:  63;

W YELLOWSTONE  NOT AVBL

$$
WYZ002>013-054>058-071-098>099-261900-
NORTHERN WYOMING

CITY           SKY/WX    TMP DP  RH WIND       PRES   REMARKS
JACKSON        NOT AVBL
CODY           NOT AVBL
GREYBULL       SUNNY     82  28  14 N9        30.14S
6HR MIN TEMP:  55; 6HR MAX TEMP:  82;

WORLAND        SUNNY     79  33  19 N6        30.16S
6HR MIN TEMP:  53; 6HR MAX TEMP:  80;

SHERIDAN       SUNNY     79  35  20 NW13      30.16S
6HR MIN TEMP:  51; 6HR MAX TEMP:  79;

BUFFALO        SUNNY     72  33  24 CALM      30.22S
6HR MIN TEMP:  54; 6HR MAX TEMP:  74;

GILLETTE       SUNNY     78  35  21 NW13      30.16F
6HR MIN TEMP:  48; 6HR MAX TEMP:  78;

HULETT         FAIR      72  45  37 MISG      30.17
NEWCASTLE      FAIR      79  32  18 NW14G22   30.15

$$
WYZ014>020-022>026-101>103-261900-
CENTRAL WYOMING

CITY           SKY/WX    TMP DP  RH WIND       PRES   REMARKS
BIG PINEY      SUNNY     77  25  14 CALM      30.33S
6HR MIN TEMP:  42; 6HR MAX TEMP:  80;

PINEDALE       CLEAR     75  27  16 N14       30.35S
DUBOIS         FAIR      77  21  12 NW23G30   30.29S
LANDER         SUNNY     79  29  16 VRB5      30.19F
6HR MIN TEMP:  57; 6HR MAX TEMP:  80;

RIVERTON       SUNNY     79  28  15 E12G18    30.20F
6HR MIN TEMP:  59; 6HR MAX TEMP:  79;

CASPER         SUNNY     77  28  16 CALM      30.21S
6HR MIN TEMP:  48; 6HR MAX TEMP:  78;

DOUGLAS        SUNNY     80  28  15 N6        30.20S
6HR MIN TEMP:  55; 6HR MAX TEMP:  81;


$$
WYZ021-027>030-104>119-261900-
SOUTHERN WYOMING

CITY           SKY/WX    TMP DP  RH WIND       PRES   REMARKS
EVANSTON       MOSUNNY   78  38  23 W9        30.36S
6HR MIN TEMP:  55; 6HR MAX TEMP:  79;

KEMMERER       CLEAR     77  30  18 SW12G18   30.36S
FORT BRIDGER   FAIR      83  35  18 W9G17     30.37S
ROCK SPRINGS   NOT AVBL
DIXON          FAIR      85  44  23 SW10      30.30F
RAWLINS        SUNNY     85  26  11 W20G25    30.28S
6HR MIN TEMP:  52; 6HR MAX TEMP:  85;

SARATOGA       FAIR      82  37  20 W12G20    30.30F
LARAMIE        MOSUNNY   82  44  26 SW13G23   30.29F
6HR MIN TEMP:  52; 6HR MAX TEMP:  82;

CHEYENNE       PTSUNNY   77  39  25 NE9       30.24F
6HR MIN TEMP:  66; 6HR MAX TEMP:  77;

TORRINGTON     SUNNY     86  40  19 N8        30.10S
6HR MIN TEMP:  62; 6HR MAX TEMP:  86;

PINE BLUFFS    FAIR      77  36  22 N8        30.19S

$$


USA.gov is the U.S. government's official web portal to all federal, state and local government web resources and services.